Location: Platte
(43.3870°N, 98.8440°W)
Time: 14:45:01
(UTC-05:00)

Daily predictions for brighter satellites

Satellite Brightness Start Highest point End
(mag) Time Altitude Azimuth Time Altitude Azimuth Time Altitude Azimuth
Timation 2 Rocket 3.9 21:26:51 10° SSW 21:32:45 67° ESE 21:38:48 10° NNE
Cosmos 468 Rocket 4.0 21:29:31 10° S 21:34:45 72° ESE 21:39:58 10° NNE
Resurs 1-3 3.7 21:30:24 10° SSE 21:34:47 82° WSW 21:39:12 10° NNW
Cosmos 1937 Rocket 3.7 21:30:32 10° NNW 21:35:37 57° ENE 21:40:40 10° SE
Cosmos 304 Rocket 4.4 21:33:00 10° SSW 21:37:46 63° WNW 21:42:34 10° NNE
Cosmos 1763 Rocket 3.8 21:34:05 10° S 21:39:10 49° ESE 21:44:15 10° NNE
Cosmos 1455 Rocket 4.1 21:36:10 10° NNE 21:40:02 30° ENE 21:43:53 10° SE
Cosmos 2298 Rocket 4.4 21:36:10 10° N 21:41:22 51° ENE 21:46:30 10° SE
deb Kosmos-1763 4.0 21:39:56 10° SSW 21:43:38 86° ESE 21:47:21 10° NNE
Cosmos 841 Rocket 4.0 21:40:56 10° S 21:45:46 39° ESE 21:50:38 10° NE
Cosmos 1378 Rocket 4.3 21:42:55 10° SSW 21:47:09 57° W 21:51:25 10° N
Abrixas rocket 2.6 21:45:33 10° WSW 21:48:45 66° NNW 21:51:58 10° ENE
USA 186 3.9 21:47:38 10° SSW 21:50:29 28° W 21:53:28 10° NW
ERS-2 3.2 21:47:01 10° S 21:50:34 45° W 21:54:08 10° NNW
Cosmos 1975 Rocket 3.0 21:48:03 10° S 21:52:22 76° E 21:56:42 10° NNE
Cosmos 1666 3.0 21:49:21 10° NNW 21:53:14 72° W 21:57:04 10° S
Okean 1 Rocket 4.2 21:49:18 10° NNW 21:53:27 44° W 21:57:33 10° SSW
Cosmos 1975 3.4 21:49:46 10° NNW 21:53:45 60° W 21:57:41 10° S
Cosmos 2360 Rocket 2.8 21:48:25 10° NNW 21:53:49 44° ENE 21:58:58 11° SE
USA 32 4.5 21:49:06 10° N 21:54:09 45° E 21:59:07 10° SSE
BREEZE M DEB (TANK) 3.6 21:41:49 10° WNW 21:54:56 89° SW 21:58:38 11° ESE
ISS -1.7 21:52:44 10° W 21:55:41 30° NNW 21:58:38 10° NE
Cosmos 1980 Rocket 4.1 21:51:35 10° NW 21:56:12 26° WSW 22:00:49 10° SSW
Tiangong 2 1.0 21:53:21 10° W 21:56:30 77° S 21:59:39 10° E
Cosmos 2219 Rocket 4.1 21:53:04 10° N 21:56:35 17° NE 22:00:06 10° E
Shenzhou-11 Module 2.2 21:55:44 10° W 21:58:39 53° SSW 22:01:06 14° ESE
USA 234 3.3 21:53:43 10° NE 22:00:13 60° SE 22:06:41 10° SW
Cosmos 2084 3.6 21:57:14 10° SW 22:01:32 75° NW 22:05:38 10° NE
NOSS 3-2 (A) 4.4 21:57:41 10° SW 22:03:31 54° NW 22:10:03 10° NNE
Meteor 1-19 Rocket 4.4 21:57:49 10° S 22:03:44 87° E 22:09:40 10° N
Cosmos 1544 Rocket 3.7 22:03:15 10° N 22:07:39 59° E 22:11:45 12° SSE
Cosmos 292 Rocket 3.8 22:03:53 10° S 22:08:32 57° ESE 22:13:12 10° NNE
Cosmos 1743 3.6 22:04:58 10° NNW 22:08:42 49° W 22:12:22 10° S
Meteor 2-9 Rocket 4.1 22:03:27 10° N 22:08:49 77° ENE 22:14:16 10° SSE
NOSS 3-2 (C) 4.0 22:04:17 10° SW 22:10:11 65° NW 22:16:49 10° NNE
MetOp-A 4.2 22:04:57 10° SSE 22:10:15 69° ENE 22:15:36 10° N
ERS-1 Rocket 3.4 22:07:42 13° SE 22:11:57 46° ENE 22:16:45 10° N
Iridium 2 3.8 22:09:58 10° S 22:13:46 81° W 22:17:38 10° N
SJ 16-02 2.1 22:13:17 10° N 22:17:27 38° ENE 22:20:27 17° SE
Helios 1B rocket 4.0 22:15:10 10° NE 22:17:59 18° E 22:19:16 16° ESE
Cosmos 1356 3.6 22:15:40 11° S 22:18:51 51° E 22:22:15 10° NNE
Cosmos 2333 Rocket 3.8 22:18:54 10° N 22:23:22 23° NE 22:27:41 11° E
Cosmos 1536 Rocket 3.8 22:21:53 12° SSE 22:25:48 53° E 22:30:10 10° NNE
Cosmos 1814 Rocket 4.3 22:20:39 10° SSW 22:25:53 71° WNW 22:31:13 10° NNE
CENTAUR R/B 2.5 22:20:05 10° SSW 22:26:01 81° SE 22:32:55 10° NE
COSMOS 2428 3.7 22:21:28 10° N 22:26:40 35° NE 22:30:38 16° ESE
Meteor 1-23 Rocket 4.3 22:22:10 10° S 22:27:36 57° E 22:33:04 10° NNE
CZ-4C R/B 3.5 22:22:32 10° NNW 22:29:17 46° NE 22:35:47 14° ESE
Resurs 01 Rocket 3.8 22:25:55 10° SSW 22:29:25 23° W 22:32:57 10° NW
SPOT 1/Viking Rocket 4.2 22:26:19 17° SE 22:29:52 42° ENE 22:34:42 10° N
Aureole 2 Rocket 2.5 22:29:25 10° NNW 22:32:16 51° WSW 22:33:53 21° S
H-2A R/B 1.9 22:29:02 15° SSE 22:33:13 89° E 22:38:20 10° NNW
SL-08 RB Rocket 3.7 22:30:44 15° SSE 22:34:26 88° W 22:39:03 10° NNW
Cosmos 1125 Rocket 4.0 22:29:38 10° N 22:34:45 48° ENE 22:38:03 21° SE
Cosmos 1833 4.2 22:29:08 10° SSW 22:34:52 82° ESE 22:40:34 10° NNE
Lacrosse 5 rocket 1.3 22:31:15 10° NW 22:35:37 84° NE 22:38:05 24° SE
Meteor 2-4 Rocket 3.9 22:31:36 10° SSW 22:37:01 71° WNW 22:42:39 10° N
Cosmos 1515 3.6 22:35:38 14° S 22:38:54 80° E 22:42:46 10° N
ARGOS 3.6 22:37:57 11° S 22:43:00 62° WSW 22:48:23 10° NNW
Nadezhda 4 Rocket 4.2 22:37:37 10° N 22:43:51 58° E 22:48:06 21° SSE
Cosmos 2227 Rocket 4.1 22:47:43 12° E 22:47:46 12° E 22:49:37 10° ENE
Cosmos 2322 Rocket 3.6 22:43:44 10° NW 22:48:36 31° WSW 22:53:26 10° SSW
Cosmos 2322 3.7 22:43:30 10° NNW 22:49:17 86° ENE 22:52:56 23° SSE
Cosmos 836 Rocket 4.5 22:45:33 11° S 22:50:31 65° ESE 22:55:42 10° NNE
Cosmos 2237 Rocket 3.9 22:48:19 10° N 22:52:42 22° NE 22:56:28 12° E
DMSP B5D2-2 4.1 22:47:42 10° NNE 22:53:00 68° ESE 22:57:06 17° S
CARTOSAT-1 4.2 22:56:13 28° ESE 22:57:59 42° ENE 23:02:03 10° N
SL-16 R/B 4.0 22:54:14 10° NW 22:58:42 24° WSW 23:03:10 10° SSW
Cosmos 1340 Rocket 4.1 22:55:31 10° SW 22:59:20 40° WNW 23:03:13 10° N
Landsat 7 3.9 22:57:52 28° SE 23:00:16 63° ENE 23:04:59 10° N
Cosmos 1066 Rocket 4.4 22:58:35 26° SSE 23:01:21 49° E 23:06:36 10° NNE
Cosmos 1025 Rocket 3.0 23:04:19 30° SSE 23:06:19 66° E 23:10:40 10° NNE
Cosmos 540 Rocket 3.8 23:04:29 10° SSW 23:09:37 65° WNW 23:14:47 10° NNE
Cosmos 1544 3.4 23:11:21 10° N 23:14:58 48° E 23:15:35 43° ESE
Cosmos 1606 Rocket 4.3 23:10:54 10° N 23:15:06 40° ENE 23:16:17 33° ESE
USA 245 4.5 23:16:00 22° SSW 23:17:55 38° W 23:22:05 10° NNW
Terra 1.9 23:17:12 36° SE 23:19:03 64° ENE 23:23:46 10° N
SPOT 5 2.9 23:17:08 30° S 23:19:15 64° WSW 23:23:51 10° NNW
Cosmos 2219 3.4 23:16:32 28° S 23:19:24 54° ESE 23:25:00 10° NNE
Cosmos 2034 Rocket 4.3 23:14:00 10° SSW 23:20:02 63° W 23:26:10 10° N
Cosmos 1766 4.2 23:17:37 10° N 23:21:16 34° ENE 23:21:51 32° E
Spot 1 3.8 23:22:31 45° SSE 23:23:44 84° ENE 23:27:49 10° NNW
Meteor 1-22 Rocket 4.4 23:18:45 10° N 23:23:58 51° ENE 23:25:51 35° SE
Abrixas rocket 3.9 23:22:33 10° WNW 23:25:31 32° N 23:28:17 11° ENE
Helios 1A 3.9 23:28:05 27° SSW 23:29:53 42° W 23:33:52 10° NNW
Okean 2 4.1 23:28:17 22° SSW 23:30:42 51° W 23:34:48 10° N
ISS -1.0 23:30:27 10° NW 23:32:53 19° N 23:35:18 10° NE
Tiangong 2 1.7 23:30:03 10° W 23:32:27 45° WSW 23:32:27 45° WSW
YAOGAN 11 4.2 23:32:52 46° SE 23:34:06 71° ENE 23:38:38 10° N
CZ-2C R/B 3.2 23:30:50 10° NNE 23:36:13 44° E 23:37:37 37° SE
Cosmos 2360 Rocket 3.6 23:32:49 10° NW 23:37:36 29° WSW 23:40:45 17° SSW
Cosmos 2195 Rocket 4.4 23:32:25 10° N 23:38:36 76° E 23:41:12 37° SSE
Cosmos 1627 Rocket 4.4 23:33:09 10° N 23:39:19 73° E 23:41:49 38° SSE
Cosmos 2219 Rocket 2.1 23:35:44 10° NNW 23:41:21 90° ENE 23:43:21 42° SSE
Cosmos 2333 4.5 23:37:21 10° NNW 23:42:55 59° WSW 23:45:09 35° S
USA 234 4.2 23:36:52 10° NE 23:43:07 50° NNW 23:49:24 10° W
Cosmos 1356 Rocket 4.3 23:41:27 23° SW 23:43:44 47° WNW 23:47:55 10° N
Cosmos 1634 Rocket 4.0 23:42:54 32° S 23:46:06 86° E 23:52:29 10° N
ASTRO F (AKARI) 4.4 23:43:58 10° NNE 23:47:03 77° NNE 23:47:03 77° NNE
BREEZE-M R/B 4.4 23:45:26 10° WNW 23:47:38 21° N 23:48:51 15° NE
Spot 4 4.3 23:48:10 40° ESE 23:49:19 49° ENE 23:54:00 10° N
Cosmos 1892 Rocket 3.4 23:51:39 62° SE 23:52:08 69° E 23:56:28 10° NNE
Intercosmos 25 3.5 23:52:28 55° E 23:52:31 55° E 23:55:55 10° NNE
Helios 1B rocket 3.6 23:49:33 10° N 23:53:27 40° WNW 23:55:37 22° SW
SJ 16-02 3.3 23:52:28 10° NW 23:55:47 21° W 23:57:27 17° SW
Cosmos 1805 3.4 23:51:53 10° N 23:55:48 60° E 23:55:50 60° E
Cosmos 1842 3.5 23:56:15 54° E 23:56:15 54° E 23:59:53 10° NNE
